| time (UTC) | temp C | wind direction | speed KPH | gust KPH | rain 1hr cm | rain 24hr cm | rain mn cm | humidity % | barometer mb |
| 20260508102517 | 3 | 0.0 | 3.2 | 0.00 | 0.00 | 0.00 | 93 | 1017.5 | |
| 20260508101517 | 3 | 0.0 | 0.0 | 0.00 | 0.00 | 0.00 | 92 | 1017.3 | |
| 20260508100517 | 3 | 0.0 | 1.6 | 0.00 | 0.00 | 0.00 | 92 | 1017.1 | |
| 20260508095517 | 3 | 0.0 | 0.0 | 0.00 | 0.03 | 0.00 | 92 | 1017.2 | |
| 20260508094517 | 3 | 0.0 | 1.6 | 0.00 | 0.03 | 0.00 | 92 | 1017.0 | |
| 20260508093537 | 3 | 0.0 | 0.0 | 0.00 | 0.03 | 0.00 | 91 | 1017.0 | |
| 20260508092517 | 4 | 0.0 | 0.0 | 0.00 | 0.03 | 0.00 | 91 | 1017.1 | |
| 20260508091517 | 4 | 0.0 | 0.0 | 0.00 | 0.03 | 0.00 | 92 | 1016.9 | |
| 20260508090517 | 4 | 0.0 | 1.6 | 0.00 | 0.03 | 0.00 | 92 | 1016.7 | |
| 20260508085517 | 4 | 0.0 | 0.0 | 0.00 | 0.03 | 0.00 | 92 | 1016.8 | |
| 20260508084516 | 4 | 0.0 | 1.6 | 0.00 | 0.03 | 0.00 | 92 | 1016.8 | |
| 20260508083516 | 4 | 0.0 | 0.0 | 0.00 | 0.03 | 0.00 | 91 | 1016.8 | |
| 20260508082517 | 5 | 0.0 | 0.0 | 0.00 | 0.03 | 0.00 | 91 | 1016.6 | |
| 20260508081516 | 5 | 0.0 | 3.2 | 0.00 | 0.03 | 0.00 | 92 | 1016.6 | |
| 20260508080516 | 5 | 0.0 | 0.0 | 0.00 | 0.03 | 0.00 | 91 | 1016.5 | |
| 20260508075516 | 5 | 0.0 | 0.0 | 0.00 | 0.05 | 0.00 | 91 | 1016.7 | |
| 20260508074517 | 5 | 0.0 | 0.0 | 0.00 | 0.05 | 0.00 | 91 | 1016.7 | |
| 20260508073519 | 5 | 0 | 1.6 | 1.6 | 0.00 | 0.05 | 0.00 | 90 | 1016.7 |
| 20260508072516 | 5 | 0.0 | 3.2 | 0.00 | 0.05 | 0.00 | 90 | 1016.8 | |
| 20260508071516 | 5 | 0 | 1.6 | 1.6 | 0.00 | 0.05 | 0.00 | 92 | 1016.5 |
| 20260508070516 | 5 | 0.0 | 3.2 | 0.00 | 0.05 | 0.00 | 91 | 1016.8 | |
| 20260508065516 | 5 | 0.0 | 0.0 | 0.00 | 0.05 | 0.00 | 90 | 1016.7 | |
| 20260508064516 | 5 | 0.0 | 0.0 | 0.00 | 0.05 | 0.00 | 90 | 1016.7 | |
| 20260508063516 | 6 | 0.0 | 3.2 | 0.00 | 0.05 | 0.00 | 90 | 1016.8 | |
| 20260508062536 | 6 | 0.0 | 3.2 | 0.00 | 0.05 | 0.00 | 89 | 1017.0 | |
| 20260508061516 | 6 | 0.0 | 3.2 | 0.00 | 0.05 | 0.00 | 90 | 1016.8 | |
| 20260508060516 | 6 | 0.0 | 1.6 | 0.00 | 0.05 | 0.00 | 89 | 1016.8 | |
| 20260508055516 | 6 | 0.0 | 0.0 | 0.00 | 0.05 | 0.00 | 88 | 1016.8 | |
| 20260508054516 | 6 | 0.0 | 3.2 | 0.00 | 0.08 | 0.00 | 89 | 1016.8 | |
| 20260508053516 | 6 | 0.0 | 3.2 | 0.00 | 0.08 | 0.00 | 90 | 1016.9 | |
| 20260508052516 | 6 | 0.0 | 0.0 | 0.00 | 0.08 | 0.00 | 89 | 1016.9 | |
| 20260508051516 | 6 | 0.0 | 3.2 | 0.00 | 0.08 | 0.00 | 89 | 1016.7 | |
| 20260508050536 | 6 | 0.0 | 3.2 | 0.00 | 0.08 | 0.00 | 89 | 1016.8 | |
| 20260508045516 | 6 | 0.0 | 0.0 | 0.00 | 0.08 | 0.00 | 89 | 1016.7 | |
| 20260508044516 | 6 | 0.0 | 3.2 | 0.00 | 0.08 | 0.00 | 89 | 1016.5 | |
| 20260508043516 | 6 | 0.0 | 1.6 | 0.00 | 0.08 | 0.00 | 89 | 1016.4 | |
| 20260508042516 | 7 | 0.0 | 0.0 | 0.00 | 0.08 | 0.00 | 88 | 1016.2 | |
| 20260508041516 | 7 | 0.0 | 3.2 | 0.00 | 0.08 | 0.00 | 88 | 1016.1 | |
| 20260508040536 | 7 | 0.0 | 0.0 | 0.00 | 0.08 | 0.00 | 89 | 1016.1 | |
| 20260508035537 | 7 | 0.0 | 3.2 | 0.00 | 0.08 | 0.08 | 89 | 1016.2 | |
| 20260508034517 | 7 | 0.0 | 0.0 | 0.00 | 0.08 | 0.08 | 88 | 1015.9 | |
| 20260508033517 | 7 | 0.0 | 0.0 | 0.00 | 0.08 | 0.08 | 88 | 1016.0 | |
| 20260508032517 | 7 | 0.0 | 0.0 | 0.00 | 0.08 | 0.08 | 88 | 1015.8 | |
| 20260508031517 | 8 | 0.0 | 1.6 | 0.00 | 0.10 | 0.08 | 88 | 1015.6 | |
| 20260508030517 | 8 | 0 | 1.6 | 1.6 | 0.00 | 0.10 | 0.08 | 89 | 1015.9 |
| 20260508025517 | 8 | 0.0 | 3.2 | 0.00 | 0.10 | 0.08 | 88 | 1015.9 | |
| 20260508024517 | 8 | 0.0 | 1.6 | 0.00 | 0.10 | 0.08 | 87 | 1015.7 | |
| 20260508023537 | 8 | 0.0 | 3.2 | 0.00 | 0.10 | 0.08 | 87 | 1015.6 | |
| 20260508022517 | 8 | 0.0 | 3.2 | 0.00 | 0.10 | 0.08 | 86 | 1015.6 | |
| 20260508021517 | 8 | 0.0 | 1.6 | 0.00 | 0.10 | 0.08 | 85 | 1015.3 | |
| 20260508020517 | 8 | 0.0 | 3.2 | 0.00 | 0.10 | 0.08 | 85 | 1015.2 | |
| 20260508015516 | 9 | 0.0 | 1.6 | 0.00 | 0.10 | 0.08 | 83 | 1015.0 | |
| 20260508014537 | 9 | 0.0 | 1.6 | 0.00 | 0.10 | 0.08 | 83 | 1015.0 | |
| 20260508013517 | 10 | 0.0 | 0.0 | 0.00 | 0.10 | 0.08 | 81 | 1014.9 | |
| 20260508012517 | 10 | 0.0 | 3.2 | 0.00 | 0.10 | 0.08 | 80 | 1014.6 | |
| 20260508011517 | 10 | 0.0 | 3.2 | 0.00 | 0.10 | 0.08 | 79 | 1014.6 | |
| 20260508010517 | 11 | 0.0 | 1.6 | 0.00 | 0.13 | 0.08 | 78 | 1014.5 | |
| 20260508005516 | 11 | 0.0 | 1.6 | 0.00 | 0.13 | 0.08 | 77 | 1014.2 | |
| 20260508004517 | 11 | 0.0 | 1.6 | 0.00 | 0.13 | 0.08 | 75 | 1014.3 | |
| 20260508003517 | 12 | 0.0 | 1.6 | 0.00 | 0.13 | 0.08 | 75 | 1014.3 | |
| 20260508002517 | 12 | 0.0 | 1.6 | 0.00 | 0.13 | 0.08 | 72 | 1014.1 | |
| 20260508001516 | 13 | 0.0 | 3.2 | 0.00 | 0.13 | 0.08 | 72 | 1014.0 | |
| 20260508000516 | 13 | 315 | 1.6 | 3.2 | 0.00 | 0.15 | 0.08 | 70 | 1014.0 |
| 20260507235516 | 14 | 338 | 1.6 | 3.2 | 0.00 | 0.18 | 0.08 | 67 | 1014.0 |
| 20260507234517 | 15 | 0.0 | 3.2 | 0.00 | 0.18 | 0.08 | 59 | 1014.2 | |
| 20260507233516 | 15 | 338 | 1.6 | 3.2 | 0.00 | 0.20 | 0.08 | 59 | 1014.1 |
| 20260507232516 | 16 | 0 | 3.2 | 6.4 | 0.00 | 0.33 | 0.08 | 54 | 1014.2 |
| 20260507231516 | 16 | 338 | 3.2 | 8.0 | 0.00 | 0.33 | 0.08 | 53 | 1014.3 |
| 20260507230536 | 16 | 315 | 4.8 | 14.5 | 0.00 | 0.36 | 0.08 | 54 | 1014.3 |
| 20260507225516 | 16 | 0 | 1.6 | 4.8 | 0.00 | 0.38 | 0.08 | 55 | 1014.4 |
| 20260507224536 | 16 | 315 | 1.6 | 4.8 | 0.00 | 0.38 | 0.08 | 59 | 1014.4 |
| 20260507223516 | 17 | 293 | 1.6 | 4.8 | 0.00 | 0.38 | 0.08 | 53 | 1014.5 |
| 20260507222516 | 17 | 315 | 1.6 | 4.8 | 0.00 | 0.38 | 0.08 | 54 | 1014.4 |
| 20260507221516 | 18 | 293 | 3.2 | 9.7 | 0.00 | 0.38 | 0.08 | 53 | 1014.6 |
| 20260507220516 | 18 | 293 | 4.8 | 14.5 | 0.00 | 0.38 | 0.08 | 51 | 1014.4 |
| 20260507215516 | 18 | 315 | 3.2 | 12.9 | 0.00 | 0.38 | 0.08 | 54 | 1014.4 |
| 20260507214516 | 17 | 225 | 1.6 | 4.8 | 0.00 | 0.38 | 0.08 | 53 | 1014.0 |
| 20260507213516 | 18 | 315 | 3.2 | 12.9 | 0.00 | 0.38 | 0.08 | 51 | 1013.9 |
| 20260507212516 | 18 | 338 | 3.2 | 6.4 | 0.00 | 0.38 | 0.08 | 55 | 1013.8 |
| 20260507211516 | 17 | 338 | 3.2 | 11.3 | 0.00 | 0.38 | 0.08 | 63 | 1013.8 |
| 20260507210516 | 16 | 293 | 1.6 | 8.0 | 0.00 | 0.38 | 0.08 | 59 | 1013.5 |
| 20260507205516 | 16 | 315 | 3.2 | 8.0 | 0.00 | 0.38 | 0.08 | 57 | 1013.5 |
| 20260507204516 | 16 | 293 | 3.2 | 11.3 | 0.00 | 0.38 | 0.08 | 57 | 1013.5 |
| 20260507203516 | 17 | 23 | 6.4 | 16.1 | 0.00 | 0.38 | 0.08 | 57 | 1013.7 |
| 20260507202536 | 17 | 338 | 3.2 | 11.3 | 0.00 | 0.38 | 0.08 | 59 | 1013.6 |
| 20260507201536 | 16 | 0 | 1.6 | 9.7 | 0.00 | 0.38 | 0.08 | 63 | 1013.8 |
| 20260507200516 | 16 | 45 | 1.6 | 6.4 | 0.00 | 0.38 | 0.08 | 62 | 1013.9 |
| 20260507195520 | 16 | 293 | 3.2 | 6.4 | 0.00 | 0.38 | 0.08 | 60 | 1013.9 |
| 20260507194516 | 16 | 315 | 1.6 | 4.8 | 0.00 | 0.38 | 0.08 | 64 | 1014.0 |
| 20260507193536 | 15 | 315 | 3.2 | 6.4 | 0.00 | 0.38 | 0.08 | 64 | 1014.1 |
| 20260507192516 | 16 | 0 | 4.8 | 11.3 | 0.00 | 0.38 | 0.08 | 63 | 1014.2 |
| 20260507191536 | 15 | 23 | 3.2 | 6.4 | 0.00 | 0.38 | 0.08 | 65 | 1014.3 |
| 20260507190536 | 15 | 338 | 1.6 | 4.8 | 0.00 | 0.38 | 0.08 | 68 | 1014.1 |
| 20260507185536 | 15 | 315 | 3.2 | 11.3 | 0.00 | 0.38 | 0.08 | 66 | 1014.1 |
| 20260507184516 | 15 | 315 | 1.6 | 4.8 | 0.00 | 0.38 | 0.08 | 69 | 1014.4 |
| 20260507183516 | 15 | 338 | 1.6 | 6.4 | 0.00 | 0.38 | 0.08 | 67 | 1014.2 |
| 20260507182516 | 15 | 338 | 3.2 | 8.0 | 0.00 | 0.38 | 0.08 | 68 | 1014.3 |
| 20260507181516 | 16 | 270 | 1.6 | 4.8 | 0.00 | 0.38 | 0.08 | 64 | 1014.3 |
| 20260507180516 | 15 | 293 | 3.2 | 11.3 | 0.00 | 0.38 | 0.08 | 69 | 1014.4 |
| 20260507175536 | 15 | 338 | 1.6 | 4.8 | 0.00 | 0.38 | 0.08 | 70 | 1014.2 |
| 20260507174535 | 15 | 0 | 1.6 | 6.4 | 0.00 | 0.38 | 0.08 | 72 | 1014.5 |
| 20260507173536 | 14 | 23 | 3.2 | 14.5 | 0.00 | 0.38 | 0.08 | 72 | 1014.5 |
| 20260507172536 | 14 | 315 | 3.2 | 9.7 | 0.00 | 0.38 | 0.08 | 73 | 1014.6 |
| 20260507171516 | 14 | 338 | 1.6 | 6.4 | 0.00 | 0.38 | 0.08 | 79 | 1014.6 |
| 20260507170515 | 14 | 23 | 1.6 | 3.2 | 0.00 | 0.38 | 0.08 | 79 | 1014.7 |
| 20260507165535 | 13 | 270 | 1.6 | 4.8 | 0.00 | 0.38 | 0.08 | 82 | 1014.7 |
| 20260507164516 | 13 | 225 | 1.6 | 3.2 | 0.00 | 0.38 | 0.08 | 82 | 1014.6 |
| 20260507163535 | 13 | 0.0 | 3.2 | 0.00 | 0.38 | 0.08 | 85 | 1014.5 | |
| 20260507162515 | 12 | 338 | 1.6 | 3.2 | 0.00 | 0.38 | 0.08 | 83 | 1014.6 |
| 20260507161515 | 12 | 315 | 1.6 | 4.8 | 0.00 | 0.38 | 0.08 | 85 | 1014.4 |
| 20260507160535 | 12 | 293 | 1.6 | 4.8 | 0.00 | 0.38 | 0.08 | 86 | 1014.3 |
| 20260507155515 | 12 | 248 | 1.6 | 3.2 | 0.00 | 0.38 | 0.08 | 85 | 1014.3 |
| 20260507154515 | 12 | 0.0 | 3.2 | 0.00 | 0.38 | 0.08 | 89 | 1014.3 | |
| 20260507153515 | 11 | 338 | 1.6 | 3.2 | 0.00 | 0.38 | 0.08 | 88 | 1014.1 |
| 20260507152517 | 11 | 0.0 | 3.2 | 0.00 | 0.38 | 0.08 | 88 | 1014.1 | |
| 20260507151517 | 11 | 0.0 | 1.6 | 0.00 | 0.41 | 0.08 | 89 | 1014.0 | |
| 20260507150517 | 11 | 23 | 1.6 | 3.2 | 0.00 | 0.41 | 0.08 | 88 | 1013.9 |
| 20260507145517 | 11 | 0.0 | 3.2 | 0.00 | 0.41 | 0.08 | 88 | 1013.9 | |
| 20260507144517 | 11 | 0.0 | 1.6 | 0.00 | 0.46 | 0.08 | 88 | 1013.9 | |
| 20260507143517 | 11 | 45 | 1.6 | 3.2 | 0.00 | 0.46 | 0.08 | 88 | 1013.9 |
| 20260507142517 | 11 | 45 | 1.6 | 4.8 | 0.00 | 0.46 | 0.08 | 90 | 1013.9 |
| 20260507141517 | 11 | 0 | 3.2 | 8.0 | 0.00 | 0.46 | 0.08 | 89 | 1013.9 |
| 20260507140537 | 11 | 315 | 4.8 | 8.0 | 0.00 | 0.46 | 0.08 | 89 | 1013.8 |
| 20260507135517 | 11 | 338 | 3.2 | 8.0 | 0.00 | 0.46 | 0.08 | 89 | 1013.6 |
| 20260507134517 | 11 | 338 | 1.6 | 4.8 | 0.00 | 0.46 | 0.08 | 90 | 1013.3 |
| 20260507133517 | 11 | 0 | 4.8 | 9.7 | 0.00 | 0.46 | 0.08 | 88 | 1013.3 |
| 20260507132517 | 11 | 315 | 4.8 | 9.7 | 0.00 | 0.46 | 0.08 | 90 | 1013.7 |
| 20260507131537 | 11 | 338 | 4.8 | 9.7 | 0.00 | 0.46 | 0.08 | 90 | 1013.4 |
| 20260507130537 | 11 | 315 | 6.4 | 12.9 | 0.00 | 0.46 | 0.08 | 90 | 1013.3 |
| 20260507125517 | 11 | 23 | 4.8 | 14.5 | 0.00 | 0.48 | 0.08 | 90 | 1013.3 |
| 20260507124517 | 11 | 315 | 3.2 | 11.3 | 0.00 | 0.48 | 0.08 | 91 | 1013.4 |
| 20260507123517 | 11 | 0.0 | 3.2 | 0.00 | 0.48 | 0.08 | 91 | 1013.6 | |
| 20260507122517 | 11 | 338 | 1.6 | 6.4 | 0.00 | 0.48 | 0.08 | 91 | 1013.2 |
| 20260507121517 | 11 | 0.0 | 3.2 | 0.00 | 0.51 | 0.08 | 91 | 1013.5 | |
| 20260507120517 | 11 | 0.0 | 3.2 | 0.00 | 0.53 | 0.08 | 92 | 1013.3 | |
| 20260507115537 | 11 | 0.0 | 3.2 | 0.00 | 0.56 | 0.08 | 92 | 1012.9 | |
| 20260507114517 | 11 | 0 | 1.6 | 3.2 | 0.00 | 0.56 | 0.08 | 92 | 1012.8 |
| 20260507113517 | 11 | 0.0 | 3.2 | 0.00 | 0.56 | 0.08 | 92 | 1012.9 | |
| 20260507112517 | 11 | 0.0 | 3.2 | 0.00 | 0.56 | 0.08 | 93 | 1012.9 | |
| 20260507111517 | 11 | 0.0 | 3.2 | 0.00 | 0.56 | 0.08 | 93 | 1013.0 | |
| 20260507110517 | 11 | 0.0 | 1.6 | 0.00 | 0.58 | 0.08 | 92 | 1013.0 | |
| 20260507105537 | 11 | 0.0 | 3.2 | 0.03 | 0.58 | 0.08 | 92 | 1013.0 | |
| 20260507104517 | 11 | 0.0 | 3.2 | 0.03 | 0.58 | 0.08 | 92 | 1013.0 | |
| 20260507103517 | 11 | 0.0 | 3.2 | 0.03 | 0.61 | 0.08 | 92 | 1012.8 |